Dewpoint
50 50 49 49 49 49 49 48 49 49 48 48 48 47 47 49 49 49 48 47 46 46 46 46 46 46 47 46 47 52 51 41 41 44 48 50 54 57 55 55 57 57 56 49 50 49 47 47 50 52 51 51 51 49 50 50 50 48 44 44 42 43 39 38 39 38 38 41 43 45 46 46 45 48 50 52 51 49 48 46 45 43 41 40 40 39 38 38
50 50 50 49 48 48 49 48 48 48 49 48 47 47 48 48 49 49 47 46 46 45 46 46 46 46 46 46 47 50 45 41 44 44 45 50 56 54 56 56 55 55 57 47 48 46 47 46 49 50 50 50 53 48 49 48 50 43 44 44 41 41 41 40 40 40 41 42 43 45 45 45 46 46 48 50 50 50 47 47 46 43 41 38 37 37 36 35
50 49 49 49 47 46 47 48 48 47 47 47 46 46 48 48 48 47 47 45 45 45 46 46 45 45 46 45 49 50 43 41 42 42 44 51 55 53 53 54 54 54 48 46 46 47 45 47 48 49 49 49 50 47 46 45 47 48 45 42 42 44 41 40 42 41 42 43 43 43 44 45 46 47 48 49 49 44 41 42 46 40 38 36 35 34 34 32
49 48 49 48 47 47 47 47 48 48 47 47 47 46 48 48 47 47 46 45 45 45 44 45 46 45 45 45 48 43 38 36 35 39 42 51 55 53 53 53 54 51 47 46 47 46 47 47 48 50 48 46 46 48 46 47 46 46 41 42 42 41 40 41 43 43 43 44 43 43 44 45 47 46 47 49 47 44 40 37 38 36 35 34 33 32 32 30
48 48 48 47 46 46 46 46 46 47 47 45 47 47 46 48 47 46 46 45 44 45 46 45 46 45 46 47 49 41 34 24 24 41 44 51 54 52 52 52 56 46 46 43 42 43 46 45 46 48 48 44 44 46 47 47 44 45 44 43 44 42 39 41 42 44 44 43 43 42 44 46 47 45 42 45 45 39 37 35 35 33 33 31 30 29 29 28
48 48 47 47 46 46 45 46 46 46 46 47 46 46 46 46 46 45 45 45 45 46 45 47 47 46 48 51 42 37 23 8 42 39 50 49 51 53 54 53 53 44 42 41 41 42 45 43 45 45 43 42 43 42 45 47 45 41 41 40 43 43 41 41 43 43 42 42 42 42 44 46 45 41 40 37 37 36 35 34 32 30 30 29 28 27 26 26
48 47 47 46 46 45 45 45 45 45 46 46 45 45 46 46 44 44 44 44 45 46 48 46 45 45 51 51 39 37 36 36 38 41 49 49 49 53 53 50 54 42 41 39 39 39 38 41 44 44 42 41 42 43 43 44 43 36 37 38 41 43 42 41 42 41 40 41 41 42 44 44 44 39 38 36 35 35 34 33 31 29 28 26 24 23 23 23
48 47 46 45 45 45 44 44 44 44 44 44 45 44 45 45 44 45 45 45 46 47 49 49 45 48 49 40 36 33 32 35 38 41 46 49 41 40 50 41 42 42 40 39 39 38 39 41 43 41 41 39 38 42 39 39 40 42 39 37 40 42 41 40 41 39 40 40 40 42 42 42 43 40 38 36 35 34 32 30 28 27 26 24 22 20 20 21
47 47 45 45 44 44 44 44 44 44 44 44 44 44 44 45 45 45 47 47 47 48 49 45 47 48 49 37 34 32 32 37 39 39 39 38 37 36 41 43 40 40 39 37 38 39 39 38 37 39 38 37 38 39 35 37 35 42 42 37 38 40 36 38 40 40 40 40 41 43 42 42 41 39 37 35 34 33 31 28 27 24 23 22 21 20 18 18
47 46 45 44 44 44 44 44 44 44 44 44 44 44 45 45 45 47 48 50 50 51 46 47 49 50 42 34 30 28 33 36 37 38 37 38 36 35 35 38 38 37 36 34 35 37 38 38 38 38 38 34 37 36 33 35 33 38 42 41 40 39 35 40 40 38 38 39 40 41 42 42 44 42 35 36 33 31 28 26 25 23 21 20 20 18 17 16
46 45 45 44 44 43 43 43 43 43 43 44 44 45 45 46 47 48 49 51 48 46 45 48 50 47 39 33 30 29 35 36 38 38 37 37 35 34 34 35 36 36 36 36 33 35 35 38 37 37 34 36 34 31 32 33 34 37 38 38 39 32 32 36 38 39 39 39 38 42 41 42 40 40 37 35 32 29 26 25 23 21 20 17 17 16 15 14
45 45 45 43 42 42 42 43 43 43 44 44 45 44 46 47 48 50 50 48 46 46 47 50 50 40 35 34 32 31 35 37 39 38 38 37 35 35 35 36 36 36 36 35 36 37 36 36 38 33 29 34 31 30 30 33 33 33 33 29 30 29 32 33 38 39 38 38 39 41 41 37 36 34 34 33 30 27 25 23 22 21 19 17 15 13 12 10
45 45 43 42 42 42 42 43 43 44 44 44 44 46 47 49 50 49 49 46 46 47 50 50 48 41 35 30 32 35 36 38 41 39 38 39 37 37 38 38 37 38 37 36 35 37 38 38 39 35 34 33 31 27 30 32 30 31 30 28 28 26 27 31 37 37 38 38 40 39 34 32 34 34 33 33 31 26 22 21 20 19 17 15 14 12 10 9
44 44 43 42 42 42 42 42 43 44 44 44 46 47 49 49 46 48 46 47 47 51 50 49 40 37 33 29 34 36 37 42 38 37 37 39 35 35 36 37 39 39 39 38 38 37 39 38 39 37 35 32 30 32 28 28 28 29 27 28 26 26 26 29 35 37 38 37 39 38 33 30 32 32 34 32 29 26 23 20 16 16 15 14 12 11 9 8
44 43 42 42 42 43 42 43 44 44 43 45 46 47 48 46 47 49 50 51 52 51 49 49 40 37 32 31 36 41 46 37 35 36 38 37 34 34 34 37 36 38 38 38 37 38 38 37 36 33 32 35 31 28 25 24 24 24 24 24 24 26 26 25 30 37 38 37 36 37 32 30 28 28 29 29 27 25 23 21 17 13 12 11 10 8 7 7
44 42 41 42 42 42 43 43 44 45 45 45 46 47 48 47 48 47 49 48 49 48 42 39 38 34 31 29 34 44 37 35 34 36 38 39 37 33 34 35 36 35 36 34 38 37 36 37 34 32 32 31 28 26 24 23 23 22 22 21 24 24 26 24 23 25 33 35 35 34 31 29 26 23 24 26 24 22 19 17 16 13 9 9 8 7 5 5
43 41 41 42 42 43 43 44 44 44 44 45 46 46 48 47 48 48 47 47 43 44 40 34 37 35 27 34 38 34 33 34 35 35 36 38 38 36 35 35 34 32 33 33 35 35 32 32 30 31 28 28 25 25 23 21 19 22 22 21 22 24 23 23 24 26 32 35 34 30 29 23 21 20 19 20 22 20 17 15 14 12 10 9 6 4 3 2
42 42 42 42 43 43 43 44 43 45 46 45 45 46 46 46 43 43 47 42 40 41 39 39 34 26 21 34 30 32 34 34 35 35 35 35 38 37 35 33 32 31 32 29 31 29 30 28 29 28 27 27 24 24 22 18 22 21 21 20 21 22 22 23 21 23 30 30 30 27 24 21 19 17 16 17 16 14 12 12 11 10 7 6 4 3 1 1
41 42 42 43 43 43 43 43 45 47 45 45 46 44 45 43 37 35 34 35 31 25 25 26 28 21 19 30 32 32 33 34 36 33 32 34 37 36 36 34 32 30 26 27 26 28 27 28 28 26 26 27 27 25 23 19 22 21 22 22 21 20 21 22 24 24 29 27 28 28 25 20 18 16 15 14 13 11 9 8 7 7 5 5 3 2 1 1
42 41 42 43 42 43 43 43 44 46 46 43 36 33 32 28 28 27 30 31 30 29 28 29 30 31 31 30 30 33 35 32 30 30 31 33 37 33 31 32 30 28 26 24 26 26 27 25 25 25 25 27 27 25 21 23 22 22 22 22 21 20 21 22 21 23 26 26 23 22 20 18 15 14 13 13 11 9 8 7 5 4 4 3 1 -0 -1 -1
42 41 43 43 42 42 42 42 44 44 48 37 36 32 24 24 22 22 26 28 31 31 30 30 30 29 29 30 31 33 29 28 30 28 30 35 36 30 27 29 26 24 26 25 25 26 25 22 23 23 22 26 27 24 25 25 25 23 22 21 21 20 17 21 22 24 26 26 22 22 19 16 14 12 10 9 9 6 6 5 4 3 2 2 0 -2 -3 -3
41 42 43 41 41 41 42 40 43 43 43 35 34 31 30 28 32 30 27 23 26 28 28 27 29 27 28 31 32 32 29 26 26 26 29 35 32 23 23 27 24 23 26 26 24 22 20 21 21 23 24 24 25 26 25 24 24 23 22 21 20 19 20 21 22 24 26 26 22 23 21 14 13 11 9 6 5 4 3 3 2 1 1 0 -0 -2 -3 -4
41 42 41 40 41 41 40 37 39 41 32 33 31 30 30 32 34 31 28 24 23 26 27 26 25 26 27 29 27 30 26 25 23 25 25 32 30 29 28 26 25 26 26 24 21 16 17 20 22 22 24 21 20 24 25 24 23 23 21 22 20 20 18 15 20 23 25 25 23 24 21 15 11 9 8 7 5 4 3 1 -1 -1 -2 -2 -2 -3 -4 -5
41 41 40 40 41 40 40 39 40 34 29 30 29 28 31 32 34 33 23 20 22 24 27 25 25 25 24 23 24 28 25 24 23 21 28 29 28 29 26 25 26 25 24 23 22 19 18 20 23 21 24 20 19 21 24 23 22 18 23 21 21 21 18 18 17 21 23 24 24 24 24 19 14 15 10 7 6 4 3 1 -0 -1 -2 -3 -3 -3 -3 -5
41 40 40 40 39 39 41 43 33 30 28 26 27 28 30 32 32 33 23 18 20 23 26 26 23 20 23 28 29 24 27 25 24 25 28 27 26 28 28 26 25 22 24 23 21 20 19 21 22 18 18 18 18 16 18 22 20 16 18 23 22 20 19 19 19 19 16 17 24 26 18 21 18 18 15 8 6 3 2 -0 -2 -3 -4 -4 -6 -5 -5 -5
40 40 39 39 39 38 38 27 23 27 24 22 25 28 30 30 32 30 19 8 7 18 22 21 26 18 25 20 24 27 26 23 25 24 35 26 28 29 28 24 25 22 24 22 20 20 20 20 19 17 17 16 15 15 16 20 19 17 18 21 20 20 17 18 18 16 11 12 18 24 18 9 13 17 14 11 8 3 1 -0 -2 -4 -5 -6 -5 -6 -6 -6
39 39 38 38 38 35 22 16 21 25 18 20 24 29 30 30 31 32 22 4 2 16 19 25 22 19 20 20 23 25 11 17 25 24 22 27 30 33 23 22 23 24 24 22 22 18 19 15 15 16 16 15 14 14 15 19 18 16 18 20 20 19 17 17 18 18 14 20 19 23 18 13 11 17 14 10 8 5 2 -0 -1 -4 -5 -5 -7 -6 -5 -6
39 38 36 36 37 36 24 22 19 17 17 22 27 28 30 31 31 23 12 -6 -4 17 15 16 17 24 21 21 22 21 20 19 18 19 21 24 28 25 24 21 22 21 22 21 15 15 17 12 14 14 15 15 14 15 16 18 17 17 18 19 17 18 18 17 17 16 15 14 14 17 18 12 8 12 13 10 10 5 2 -0 -2 -4 -4 -7 -6 -7 -7 -7
38 35 34 36 35 36 22 20 18 16 20 25 28 29 33 28 22 14 -0 -8 -4 10 22 17 23 20 20 22 16 18 18 17 18 18 21 24 22 23 21 20 21 19 20 21 18 16 19 14 15 13 13 12 13 15 16 16 16 17 21 20 18 17 17 15 14 14 12 11 11 11 15 10 12 15 12 11 13 13 4 0 -2 -4 -7 -8 -8 -7 -9 -9
35 36 35 34 35 26 24 20 23 22 26 28 30 30 28 26 18 10 -8 -13 9 7 18 20 15 14 19 13 12 14 11 13 17 16 19 16 17 21 20 24 21 16 17 17 17 17 15 26 26 17 11 11 12 12 14 16 17 21 19 15 15 13 10 5 9 6 8 9 13 11 13 12 10 14 15 12 15 3 0 -0 -3 -4 -6 -8 -9 -10 -9 -10
34 36 36 37 20 21 18 12 14 21 28 29 29 22 18 11 2 -10 -13 -6 5 8 13 10 7 14 8 10 7 8 10 10 10 14 13 15 17 14 17 19 20 17 17 17 15 14 12 12 12 12 23 18 15 16 20 19 20 17 11 10 13 12 9 1 -4 4 6 4 5 7 11 12 11 12 7 3 1 4 3 2 -1 -3 -5 -7 -7 -9 -8 -7
34 35 36 35 34 25 10 11 16 25 28 30 24 19 14 -1 -6 -11 -15 9 -0 7 4 3 8 7 6 6 5 7 7 9 7 10 10 10 8 9 6 10 2 13 10 14 14 13 13 10 10 9 21 10 10 15 16 14 16 16 13 14 12 2 5 4 2 5 7 5 6 3 6 11 13 5 3 1 1 1 1 0 -1 -3 -5 -5 -6 -5 -4 -6
34 33 35 32 33 25 26 26 28 28 29 30 21 17 2 -7 -16 -9 -3 -6 -3 4 4 9 6 4 5 6 2 4 5 6 6 5 8 6 8 5 5 5 1 8 8 9 10 9 12 9 8 8 10 13 12 15 13 10 11 13 13 8 6 4 3 6 4 -2 -1 3 2 6 10 11 10 6 3 1 -2 -3 -1 -2 -2 -4 -6 -6 -5 -7 -9 -8
36 38 28 32 27 28 31 31 28 30 25 28 17 11 -2 -23 -18 18 -2 -6 -2 7 6 5 4 2 3 4 3 6 8 3 3 3 6 4 5 2 6 6 5 5 -5 3 8 7 4 3 8 7 6 8 7 9 11 12 11 13 7 10 11 1 1 1 2 2 4 5 4 4 7 5 10 5 2 -4 -4 -4 -3 -3 -3 -3 -4 -5 -7 -9 -9 -10
35 31 25 24 25 23 28 28 28 30 24 17 8 2 -14 -11 -13 -1 -2 -0 4 6 5 2 1 2 0 1 1 1 5 0 2 2 3 6 0 0 0 4 3 6 -2 12 8 -3 7 -5 4 8 7 6 5 8 14 11 11 8 9 9 8 3 5 -2 -9 -5 -7 -2 -4 3 6 4 8 2 6 -1 -3 -4 -1 -3 -3 -7 -7 -7 -11 -12 -13 -13
37 26 22 19 26 20 25 29 27 26 18 10 5 -14 -11 -14 -21 -7 1 7 11 4 3 1 -4 -1 -9 -3 1 -2 -1 0 2 3 -1 -0 1 -1 1 3 1 2 5 4 -3 4 -0 3 4 4 7 3 2 8 3 7 5 11 14 7 8 7 3 0 0 2 2 2 4 -1 7 7 3 3 4 -2 -3 -4 -5 -6 -7 -8 -8 -9 -12 -13 -13 -14
25 24 16 20 19 20 25 26 26 21 14 11 1 -8 -13 -2 -3 7 18 10 10 5 2 0 -4 1 -6 -5 -4 -1 -0 3 -1 3 -6 -3 -8 -2 -2 -0 3 2 3 6 2 -8 4 -2 2 5 5 3 5 10 5 4 7 9 5 11 12 9 5 5 2 0 1 4 5 7 6 5 3 1 0 -1 -3 -5 -6 -6 -8 -8 -8 -12 -12 -13 -13 -14
25 25 24 21 18 23 25 24 22 17 14 7 -11 22 -0 2 10 12 12 10 9 6 2 -0 -5 1 -7 -7 -4 0 -0 -2 2 1 -3 0 -12 0 -1 -1 0 2 3 5 3 2 2 -3 1 0 1 1 4 7 4 5 6 9 9 7 9 2 4 -0 -2 -0 1 1 0 -5 1 3 6 5 -1 -1 -2 -4 -5 -6 -7 -9 -10 -12 -13 -13 -12 -13
22 16 4 14 20 24 23 24 22 19 7 -4 -7 7 10 4 7 10 11 11 9 4 2 2 -4 -1 1 -3 -2 -3 -3 -1 -1 -5 -8 -8 -4 -4 -0 -2 -2 1 2 4 1 3 -2 -5 -4 -0 -1 -1 3 5 -6 3 7 5 7 4 0 4 -9 1 2 -6 -5 -8 -11 -8 -6 1 3 4 2 1 -1 -2 -5 -6 -7 -8 -10 -10 -12 -12 -12 -13
18 1 -2 15 19 23 22 24 16 8 2 -4 -1 0 6 2 9 7 6 10 7 5 3 2 3 1 1 -0 -2 -6 -3 -4 -2 -6 -7 -7 -1 -2 -2 0 -1 2 3 4 -1 -1 -3 -4 -12 0 -1 -1 -5 1 -2 -4 -5 2 4 -7 -0 -3 -1 -0 -6 -1 -3 -15 -19 -14 -8 -9 -0 1 2 2 -0 -2 -4 -5 -5 -7 -8 -9 -11 -12 -13 -14
19 6 2 17 18 21 18 12 7 -2 -2 -0 -0 1 4 2 7 5 5 6 6 4 7 3 4 2 -0 -0 -1 1 -7 -7 -6 -8 -5 -4 -0 -7 -4 0 2 1 3 2 1 1 -10 -13 -7 -11 -3 -9 -1 0 2 -0 1 -1 -4 -5 -1 -0 -3 -5 -3 -4 -10 -3 -7 -12 -3 -8 -2 1 1 0 1 -2 -3 -4 -5 -5 -7 -9 -10 -12 -13 -14
5 -10 2 16 18 19 17 7 1 -6 -3 2 2 1 10 19 3 3 4 5 2 2 2 1 1 0 0 1 2 -2 -3 -7 -4 -4 -5 -2 -4 -3 -3 -3 -2 0 1 -3 -2 1 -1 -10 -5 -10 -7 -2 -0 1 5 -0 -1 -2 -2 -5 -5 -15 -10 -16 -11 -8 -8 -5 -8 -14 -9 -6 -0 0 2 3 1 0 -3 -4 -4 -5 -8 -10 -11 -12 -13 -14
7 -0 13 18 19 15 10 -3 10 7 -3 -1 4 3 3 3 1 2 2 2 1 1 -0 1 -1 -2 0 -2 -0 1 -1 -7 -5 -4 -4 -4 -4 -1 -3 -3 -4 -1 -0 0 -6 5 14 -22 -15 -16 -14 -6 -8 -4 -3 -7 -4 -7 -7 -5 -6 -6 -8 -7 -17 -13 -7 -8 -5 -13 -7 -8 -3 3 4 1 -1 1 -3 -4 -3 -5 -10 -11 -11 -12 -13 -15
7 4 5 17 18 18 6 -19 -7 -5 -3 -4 1 1 2 2 -0 -1 -0 2 3 -1 -2 -1 -1 -2 -4 -5 -6 -4 -4 -8 -6 -3 -5 -4 -2 -6 -3 -5 -6 2 -4 -5 1 -3 -13 -15 -8 -25 -26 -22 -19 -8 -9 -9 -8 -14 -15 -8 -12 -13 -13 -16 -19 -23 -10 -10 -6 -6 -7 -17 -6 1 3 -3 -4 -4 -5 -7 -5 -6 -10 -11 -11 -12 -13 -14
4 7 13 15 16 8 -6 -4 -0 -4 5 1 -5 -2 -1 0 1 2 0 -0 0 -1 -5 -3 -3 -4 -4 -6 -10 -7 -5 -8 -9 -3 -4 -4 -3 3 -3 -6 -7 4 9 11 17 -0 -16 -20 -15 -20 -25 -33 -36 -36 -24 -19 -6 -10 -10 -9 -12 -12 -12 -14 -13 -17 -13 -19 -10 -13 -15 -8 -6 -3 0 -4 -5 -6 -6 -7 -3 -7 -8 -9 -9 -10 -12 -14
-1 -14 -0 -0 5 8 7 6 2 1 -5 -9 -4 -4 -4 -3 1 -0 -2 -2 1 -1 -2 -1 -2 -3 -4 -6 -8 -12 -7 -5 -8 -11 -6 -7 -3 -4 -5 -7 -1 3 13 13 10 -3 -19 -17 -19 -24 -18 -19 -22 -17 -13 -0 -8 -11 -9 -11 -11 -17 -17 -18 -14 -15 -9 -20 -10 -11 -14 -6 -6 -4 -1 -2 -4 -6 -6 -5 -5 -5 -5 -4 -6 -8 -9 -11
-3 -12 -1 -10 -1 -2 -4 -1 0 -1 3 -0 -5 -5 -5 -5 -2 -5 -1 -6 1 -2 -6 -4 -5 -5 -7 -7 -9 -10 -10 -8 -6 -10 -7 -6 -4 -4 -11 -9 -12 4 14 8 5 -13 -23 -16 -21 -22 -20 -17 -22 -17 -10 -5 -12 -14 -10 -10 -11 -16 -18 -17 -16 -18 -12 -14 -16 -18 -19 -16 -8 -5 -3 -2 -3 -4 -5 -3 -3 -4 -4 -3 -4 -3 6 -6
-11 -8 0 -2 -11 -15 -8 -8 -9 -4 -3 -3 -7 -8 -7 -4 -7 -5 -3 -3 -5 -7 -7 -12 -8 -9 -7 -7 -11 -11 -13 -14 -15 -11 -12 -11 -10 -13 -9 -8 -12 2 2 -8 -2 -11 -23 -22 -21 -14 -13 -15 -15 -17 -17 -16 -16 -15 -12 -11 -10 -11 -18 -17 -20 -23 -18 -23 -18 -22 -19 -16 -12 -10 -1 0 -1 -2 -2 -2 -0 -4 -3 -2 -3 -4 -2 -1
-4 -6 -2 -2 -2 -5 -4 -4 -1 -1 -0 -3 3 -2 -6 -6 -4 -7 -8 -5 -8 -7 -7 -14 -9 -5 -8 -11 -11 -16 -10 -14 -16 -11 -12 -11 -10 -15 -12 -13 -9 -7 -8 -10 -10 -15 -16 -25 -22 -18 -18 -19 -19 -18 -18 -13 -13 -15 -17 -14 -11 -11 -15 -16 -20 -23 -19 -22 -20 -19 -19 -14 -12 -12 -8 -2 1 -0 -2 -2 -2 -2 -3 -3 -3 -3 -4 -3
-6 -9 -8 -1 -3 -6 -10 -0 2 1 1 6 -7 -8 -7 -6 -5 -3 -3 -7 -11 -9 -9 -13 -11 -9 -7 -13 -10 -10 -7 -12 -15 -9 -9 -10 -12 -11 -14 -9 -13 -11 -8 -10 -15 -12 -12 -39 -10 -25 -25 -26 -24 -18 -15 -17 -18 -20 -17 -16 -13 -14 -12 -11 -12 -13 -14 -15 -16 -16 -16 -13 -11 -10 -9 -7 -4 -2 -3 -3 -2 -2 -2 -1 -0 -1 -2 -3
0 0 6 5 -3 -4 -3 -14 -4 -4 -6 -6 -7 -5 -2 -6 -6 -4 -5 -7 -10 -10 -11 -11 -5 -9 -11 -13 -10 -11 -7 -10 -9 -9 -7 -5 -6 -7 -10 -14 -8 -15 -14 -15 -15 -16 -14 -17 -26 -31 -32 -39 -26 -23 -19 -22 -21 -19 -18 -17 -16 -14 -15 -13 -11 -10 -14 -15 -15 -15 -18 -18 -14 -9 -6 -8 -7 -6 -5 -4 -4 -4 -1 1 1 0 -1 -2
4 4 4 8 2 11 -4 -13 -14 -6 -12 -9 -3 -1 0 -3 -6 -9 -11 -6 -4 -5 -3 -6 -9 -7 -13 -11 -9 -5 -4 -7 -8 -4 -3 -4 -3 -2 -5 -10 -8 -5 -18 -9 -19 -17 -23 -16 -24 -32 -30 -40 -34 -26 -22 -22 -26 -30 -20 -18 -18 -14 -15 -14 -13 -10 -11 -15 -20 -23 -22 -18 -14 -9 -11 -10 -8 -7 -7 -7 -6 -3 1 2 2 1 0 -1